logo tempoitalia

Diretta Meteo Venezia-Tessera, Italiavenerdì 23 luglio ore 20:50

Mappa
Sereno 27 °C Sereno 24 Ore: T.min 20 T.max 29
Ponente Sud Km/h 7.4 Punto di rugiada: 19 °C Umidità: 61% Visibilità: 10 Km
Il sole sorge alle: 05:43 Il sole tramonta alle: 20:51
23 Luglio 2021 20:50 tempo osservato: Sereno Sereno 27 61 1013 vento: Nord S 7.4
23 Luglio 2021 20:20 tempo osservato: Sereno Sereno 27 54 1012 vento: Nord N 5.5
23 Luglio 2021 19:50 tempo osservato: Sereno Sereno 27 54 1012 vento: Nord S 7.4
23 Luglio 2021 19:20 tempo osservato: Sereno Sereno 28 51 1012 vento: Nord S 9.3
23 Luglio 2021 18:50 tempo osservato: Sereno Sereno 28 51 1012 vento: Nord S/SE 11.1
23 Luglio 2021 18:20 tempo osservato: Sereno Sereno 29 45 1013 vento: Nord S/SE 11.1
23 Luglio 2021 17:50 tempo osservato: Sereno Sereno 29 48 1013 vento: Nord S/SE 9.3
23 Luglio 2021 17:20 tempo osservato: Sereno Sereno 29 48 1013 vento: Nord S/SE 11.1
23 Luglio 2021 16:50 tempo osservato: Sereno Sereno 29 51 1013 vento: Nord S 9.3
23 Luglio 2021 16:20 tempo osservato: Sereno Sereno 29 51 1013 vento: Nord S 11.1
23 Luglio 2021 15:50 tempo osservato: Sereno Sereno 29 54 1013 vento: Nord S 11.1
23 Luglio 2021 15:20 tempo osservato: Sereno Sereno 29 51 1013 vento: Nord S/SE 11.1
23 Luglio 2021 14:20 tempo osservato: Sereno Sereno 29 54 1014 vento: Nord S/SE 11.1
23 Luglio 2021 13:50 tempo osservato: Sereno Sereno 29 48 1014 vento: Nord S/SE 9.3
23 Luglio 2021 13:20 tempo osservato: Sereno Sereno 28 51 1014 vento: Nord S/SE 7.4
23 Luglio 2021 12:50 tempo osservato: Sereno Sereno 28 58 1015 vento: Nord S/SE 9.3
23 Luglio 2021 12:20 tempo osservato: Sereno Sereno 28 54 1015 vento: Nord S/SE 9.3
23 Luglio 2021 11:50 tempo osservato: Sereno Sereno 28 54 1015 vento: Nord SE 11.1
23 Luglio 2021 11:20 tempo osservato: Sereno Sereno 28 58 1015 vento: Nord N 5.5
23 Luglio 2021 10:50 tempo osservato: Sereno Sereno 27 61 1015 vento: Nord N 5.5
23 Luglio 2021 10:20 tempo osservato: Sereno Sereno 26 61 1015 vento: Nord NE 9.3
23 Luglio 2021 09:50 tempo osservato: Sereno Sereno 26 61 1015 vento: Nord NE 11.1
23 Luglio 2021 09:20 tempo osservato: Sereno Sereno 25 65 1015 vento: Nord N/NE 11.1
23 Luglio 2021 08:50 tempo osservato: Sereno Sereno 24 69 1015 vento: Nord N/NE 11.1
23 Luglio 2021 08:20 tempo osservato: Sereno Sereno 23 73 1015 vento: Nord N/NE 9.3
23 Luglio 2021 07:50 tempo osservato: Sereno Sereno 22 78 1015 vento: Nord N/NE 9.3
23 Luglio 2021 07:20 tempo osservato: Sereno Sereno 21 82 1015 vento: Nord N/NE 11.1
23 Luglio 2021 06:50 tempo osservato: Sereno Sereno 20 88 1015 vento: Nord N 9.3
23 Luglio 2021 06:20 tempo osservato: Sereno Sereno 20 88 1015 vento: Nord N 7.4
23 Luglio 2021 05:50 tempo osservato: Sereno Sereno 20 88 1015 vento: Nord N/NO 9.3
23 Luglio 2021 05:20 tempo osservato: Sereno Sereno 20 88 1015 vento: Nord NE 9.3
23 Luglio 2021 04:50 tempo osservato: Sereno Sereno 20 88 1015 vento: Nord NE 11.1
23 Luglio 2021 04:20 tempo osservato: Nuvoloso Nuvoloso 21 82 1015 vento: Nord N/NE 7.4
23 Luglio 2021 03:50 tempo osservato: Nuvoloso Nuvoloso 21 88 1016 vento: Nord N/NO 11.1
23 Luglio 2021 03:20 tempo osservato: Sereno Sereno 21 88 1015 vento: Nord N 13
23 Luglio 2021 02:50 tempo osservato: Sereno Sereno 21 88 1016 vento: Nord N/NO 11.1
23 Luglio 2021 02:20 tempo osservato: Sereno Sereno 21 88 1016 vento: Nord O/NO 14.8
23 Luglio 2021 01:50 tempo osservato: Sereno Sereno 21 88 1016 vento: Nord NO 14.8
23 Luglio 2021 01:20 tempo osservato: Nuvoloso Nuvoloso 21 94 1017 vento: Nord NO 13
23 Luglio 2021 00:50 tempo osservato: Pioggia Pioggia 22 88 1017 vento: Nord N 13
23 Luglio 2021 00:20 tempo osservato: Pioggia Pioggia 22 88 1017 vento: Nord NO 9.3
22 Luglio 2021 23:50 tempo osservato: Pioggia Pioggia 22 88 1017 vento: Nord N/NO 14.8
22 Luglio 2021 23:20 tempo osservato: Pioggia Pioggia 22 88 1017 vento: Nord NO 13
22 Luglio 2021 22:50 tempo osservato: Pioggia Pioggia 24 73 1016 vento: Nord NO 9.3
22 Luglio 2021 22:20 tempo osservato: Pioggia Pioggia 25 65 1016 vento: Nord N 5.5
22 Luglio 2021 21:50 tempo osservato: Temporale nelle vicinanze Temporale nelle vicinanze 25 65 1016 vento: Nord N 5.5